Location: Andershausen
(51.8462°N, 9.8595°E)
Time: 02:10:10
(UTC+00:00)

Geosat - Pass Details

Date: 18 November 2025
Orbit: 758 x 760 km, 108.0° (Epoch: 13 December)

Event Time Altitude Azimuth Distance (km) Brightness Sun altitude
Exits shadow 17:25:24 28° 112° (ESE) 1,398 4.9 -18.1°
Maximum altitude 17:27:45 51° 51° (NE) 952 4.1 -18.5°
Drops below altitude 10° 17:32:36 10° 336° (NNW) 2,303 6.7 -19.2°
Sets 17:34:56 0° 332° (NNW) 3,233 7.5 -19.6°
